Flag for Paraguay Weather past 2 weeks in Asuncion, Paraguay

63 °F

Drizzle. Low clouds.

Feels Like: 63 °F
Forecast: N/A
Wind: 10 mph from Southwest

Location: Asuncion / Aeropuerto

Current Time: Oct 9, 2015 at 7:31:24 PM

Latest Report: Oct 9, 2015 at 6:00 PM

Visibility: 5 mi

Pressure: 29.83 "Hg

Humidity: 94%

Dew point: 61 °F

Location of AsuncionLocation

Historic Weather in Asuncion — Graph


Asuncion temperature yesterday

Maximum temperature yesterday: 90 °F (at 1:00 PM)
Minimum temperature yesterday: 70 °F (at 10:00 PM)
Average temperature yesterday: 80 °F

Past Weeks' High & Low Weather Summary

High102 °F (Oct 7, 2:00 PM)100% (Sep 27, 10:00 PM)30.09 "Hg (Sep 27, 10:00 PM)
Low54 °F (Sep 28, 3:00 AM)35% (Oct 7, 2:00 PM)29.59 "Hg (Oct 7, 4:00 PM)
Average74 °F74%29.85 "Hg
* Reported Sep 24 5:00 PM — Oct 9 6:00 PM, Asuncion, Weather by CustomWeather, © 2015

Note: Actual official high and low records may vary slightly from our data, if they occured in-between our weather recording intervals... More about our weather records


Asuncion weather history for previous 24 hours

Time TempWeatherWind HumidityBarometerVisibility
6:00 PM
Fri, Oct 9
63 °FDrizzle. Low clouds.10 mph94%29.83 "Hg5 mi
5:00 PM64 °FDrizzle. Low clouds.7 mph100%29.83 "Hg3 mi
4:00 PM64 °FRain. Low clouds.6 mph94%29.83 "HgN/A
3:00 PM64 °FRain. Mostly cloudy.6 mph94%29.83 "Hg4 mi
2:00 PM64 °FLight rain. Low clouds.7 mph94%29.83 "HgN/A
1:00 PM66 °FRain. Low clouds.7 mph94%29.83 "Hg6 mi
12:00 PM66 °FLight rain. Low clouds.3 mph94%29.83 "HgN/A
11:00 AM66 °FThunderstorms. Low clouds.6 mph94%29.86 "HgN/A
10:30 AM64 °FThunderstorms. Mostly cloudy.3 mph100%29.83 "HgN/A
10:00 AM64 °FStrong thunderstorms. Low clouds.6 mph100%29.86 "Hg1 mi
9:30 AM64 °FThunderstorms. Mostly cloudy.7 mph100%29.83 "Hg2 mi
9:00 AM64 °FThunderstorms. Mostly cloudy.8 mph100%29.83 "Hg5 mi
8:30 AM64 °FThunderstorms. Mostly cloudy.5 mph100%29.80 "Hg5 mi
8:00 AM64 °FThunderstorms. Mostly cloudy.8 mph94%29.77 "Hg6 mi
7:00 AM66 °FThunderstorms. Low clouds.9 mph94%29.77 "Hg6 mi
6:00 AM64 °FThunderstorms. Mostly cloudy.5 mph100%29.77 "Hg5 mi
5:00 AM66 °FThunderstorms. Overcast.13 mph94%29.77 "Hg4 mi
4:00 AM68 °FThunderstorms. Overcast.9 mph88%29.71 "HgN/A
3:00 AM68 °FThunderstorms. Overcast.8 mph83%29.74 "HgN/A
2:00 AM68 °FMostly cloudy.10 mph83%29.77 "HgN/A
1:00 AM68 °FLight rain. Mostly cloudy.9 mph88%29.80 "HgN/A
12:00 AM70 °FPassing clouds.10 mph83%29.80 "HgN/A
11:00 PM
Thu, Oct 8
70 °FPassing clouds.8 mph83%29.80 "HgN/A
10:00 PM70 °FPassing clouds.10 mph83%29.77 "HgN/A
9:00 PM72 °FPassing clouds.13 mph78%29.77 "HgN/A
8:00 PM73 °FPassing clouds.10 mph74%29.77 "HgN/A
7:00 PM75 °FPassing clouds.12 mph69%29.74 "HgN/A
Weather by CustomWeather, © 2015

See weather overviewHow to use our weather pages